When you browse on this site, cookies collect data to enhance your experience and personalize the content and advertising you see.
Visit our Privacy Policy to learn more. By continuing to use the site, you agree to this use of cookies and data.
  • Em Portugal
  • Lista de países
  • Para 7 dias
  • Temperatura da água
  • Mapas de satélite
  • Mapa do tempo
  • Widgets de tempo
  • user-avatar
    Iniciar Sessão

    Previsão horária em Durres

    Hoje, 24 Julho, Quarta-feira

    Tempo Temperatura Precipitação Vento Pressão Humidade
    00:00 +26°C° 0 mm 3 m/s 759 mmHg 58%
    01:00 +26°C° 0 mm 2 m/s 759 mmHg 58%
    02:00 +25°C° 0 mm 3 m/s 758 mmHg 57%
    03:00 +25°C° 0 mm 4 m/s 758 mmHg 56%
    04:00 +25°C° 0 mm 5 m/s 758 mmHg 55%
    05:00 +27°C° 0 mm 5 m/s 758 mmHg 50%
    06:00 +28°C° 0 mm 5 m/s 758 mmHg 46%
    07:00 +30°C° 0 mm 5 m/s 758 mmHg 41%
    08:00 +33°C° 0 mm 6 m/s 758 mmHg 37%
    09:00 +34°C° 0 mm 6 m/s 758 mmHg 33%
    10:00 +36°C° 0 mm 7 m/s 758 mmHg 29%
    11:00 +38°C° 0 mm 8 m/s 758 mmHg 28%
    12:00 +39°C° 0 mm 8 m/s 758 mmHg 26%
    13:00 +40°C° 0 mm 9 m/s 758 mmHg 25%
    14:00 +39°C° 0 mm 9 m/s 758 mmHg 26%
    15:00 +39°C° 0 mm 9 m/s 758 mmHg 27%
    16:00 +39°C° 0 mm 9 m/s 757 mmHg 28%
    17:00 +35°C° 0 mm 9 m/s 758 mmHg 34%
    18:00 +33°C° 0 mm 8 m/s 758 mmHg 41%
    19:00 +31°C° 0 mm 8 m/s 758 mmHg 47%
    20:00 +29°C° 0 mm 7 m/s 758 mmHg 50%
    21:00 +28°C° 0 mm 6 m/s 759 mmHg 53%
    22:00 +27°C° 0 mm 5 m/s 759 mmHg 56%
    23:00 +27°C° 0 mm 4 m/s 759 mmHg 55%

    Amanhã, 25 Julho, Quinta-feira

    Tempo Temperatura Precipitação Vento Pressão Humidade
    00:00 +26°C° 0 mm 4 m/s 759 mmHg 54%
    01:00 +26°C° 0 mm 4 m/s 759 mmHg 54%
    02:00 +25°C° 0 mm 4 m/s 759 mmHg 54%
    03:00 +25°C° 0 mm 4 m/s 759 mmHg 54%
    04:00 +25°C° 0 mm 4 m/s 759 mmHg 54%
    05:00 +26°C° 0 mm 4 m/s 760 mmHg 50%
    06:00 +28°C° 0 mm 3 m/s 760 mmHg 46%
    07:00 +30°C° 0 mm 3 m/s 760 mmHg 42%
    08:00 +33°C° 0 mm 3 m/s 760 mmHg 38%
    09:00 +35°C° 0 mm 2 m/s 760 mmHg 33%
    10:00 +37°C° 0 mm 2 m/s 760 mmHg 29%
    11:00 +37°C° 0 mm 2 m/s 760 mmHg 30%
    12:00 +37°C° 0 mm 3 m/s 760 mmHg 31%
    13:00 +37°C° 0 mm 3 m/s 760 mmHg 32%
    14:00 +36°C° 0 mm 3 m/s 759 mmHg 34%
    15:00 +36°C° 0 mm 4 m/s 759 mmHg 36%
    16:00 +35°C° 0 mm 4 m/s 759 mmHg 38%
    17:00 +33°C° 0 mm 3 m/s 759 mmHg 43%
    18:00 +30°C° 0 mm 3 m/s 759 mmHg 48%
    19:00 +28°C° 0 mm 2 m/s 759 mmHg 53%
    20:00 +27°C° 0 mm 2 m/s 759 mmHg 55%
    21:00 +27°C° 0 mm 1 m/s 760 mmHg 56%
    22:00 +26°C° 0 mm 1 m/s 760 mmHg 58%
    23:00 +26°C° 0 mm 1 m/s 760 mmHg 59%

    Depois de amanhã, 26 Julho, Sexta-feira

    Tempo Temperatura Precipitação Vento Pressão Humidade
    00:00 +26°C° 0 mm 1 m/s 760 mmHg 60%
    01:00 +25°C° 0 mm 1 m/s 759 mmHg 61%
    02:00 +25°C° 0 mm 1 m/s 759 mmHg 62%
    03:00 +25°C° 0 mm 1 m/s 759 mmHg 63%
    04:00 +25°C° 0 mm 1 m/s 759 mmHg 64%
    05:00 +26°C° 0 mm 1 m/s 759 mmHg 58%
    06:00 +28°C° 0 mm 1 m/s 759 mmHg 53%
    07:00 +30°C° 0 mm 1 m/s 758 mmHg 48%
    08:00 +31°C° 0 mm 1 m/s 758 mmHg 44%
    09:00 +33°C° 0 mm 1 m/s 758 mmHg 40%
    10:00 +36°C° 0 mm 2 m/s 758 mmHg 37%
    11:00 +36°C° 0 mm 2 m/s 758 mmHg 36%
    12:00 +36°C° 0 mm 3 m/s 757 mmHg 36%
    13:00 +36°C° 0 mm 3 m/s 757 mmHg 35%
    14:00 +36°C° 0 mm 3 m/s 757 mmHg 36%
    15:00 +36°C° 0 mm 3 m/s 756 mmHg 37%
    16:00 +35°C° 0 mm 2 m/s 756 mmHg 38%
    17:00 +32°C° 0 mm 2 m/s 756 mmHg 44%
    18:00 +30°C° 0 mm 1 m/s 756 mmHg 51%
    19:00 +28°C° 0 mm 1 m/s 756 mmHg 58%
    20:00 +27°C° 0 mm 1 m/s 756 mmHg 59%
    21:00 +26°C° 0 mm 2 m/s 756 mmHg 61%
    22:00 +26°C° 0 mm 2 m/s 756 mmHg 63%
    23:00 +25°C° 0 mm 2 m/s 756 mmHg 66%

    27 Julho, Sábado

    Tempo Temperatura Precipitação Vento Pressão Humidade
    00:00 +25°C° 0 mm 1 m/s 755 mmHg 68%
    01:00 +24°C° 0 mm 1 m/s 755 mmHg 70%
    02:00 +24°C° 0 mm 2 m/s 755 mmHg 70%
    03:00 +24°C° 0 mm 2 m/s 755 mmHg 71%
    04:00 +24°C° 0 mm 3 m/s 754 mmHg 71%
    05:00 +26°C° 0 mm 3 m/s 754 mmHg 64%
    06:00 +28°C° 0 mm 3 m/s 754 mmHg 57%
    07:00 +29°C° 0 mm 3 m/s 754 mmHg 51%
    08:00 +31°C° 0 mm 3 m/s 754 mmHg 45%
    09:00 +34°C° 0 mm 3 m/s 754 mmHg 39%
    10:00 +36°C° 0 mm 4 m/s 754 mmHg 33%
    11:00 +36°C° 0 mm 4 m/s 754 mmHg 34%
    12:00 +36°C° 0 mm 4 m/s 753 mmHg 36%
    13:00 +36°C° 0 mm 4 m/s 753 mmHg 37%
    14:00 +35°C° 0 mm 4 m/s 753 mmHg 38%
    15:00 +35°C° 0 mm 3 m/s 752 mmHg 39%
    16:00 +34°C° 0 mm 3 m/s 752 mmHg 40%
    17:00 +31°C° 0 mm 3 m/s 752 mmHg 45%
    18:00 +29°C° 0 mm 4 m/s 752 mmHg 51%
    19:00 +27°C° 0 mm 4 m/s 752 mmHg 57%
    20:00 +27°C° 0 mm 4 m/s 752 mmHg 59%
    21:00 +26°C° 0 mm 4 m/s 752 mmHg 61%
    22:00 +25°C° 0 mm 4 m/s 753 mmHg 64%
    23:00 +25°C° 0.1 mm 4 m/s 752 mmHg 65%

    28 Julho, Domingo

    Tempo Temperatura Precipitação Vento Pressão Humidade
    00:00 +25°C° 0.1 mm 4 m/s 752 mmHg 67%
    01:00 +23°C° 0.1 mm 4 m/s 752 mmHg 68%
    02:00 +23°C° 0.3 mm 4 m/s 752 mmHg 68%
    03:00 +24°C° 0.3 mm 3 m/s 752 mmHg 69%
    04:00 +24°C° 0.3 mm 3 m/s 752 mmHg 69%
    05:00 +25°C° 0.1 mm 2 m/s 752 mmHg 63%
    06:00 +27°C° 0.1 mm 2 m/s 752 mmHg 57%
    07:00 +29°C° 0.1 mm 1 m/s 752 mmHg 51%
    08:00 +31°C° 0 mm 2 m/s 752 mmHg 45%
    09:00 +34°C° 0 mm 2 m/s 752 mmHg 39%
    10:00 +36°C° 0 mm 2 m/s 751 mmHg 33%
    11:00 +37°C° 0 mm 4 m/s 751 mmHg 31%
    12:00 +37°C° 0 mm 5 m/s 751 mmHg 29%
    13:00 +39°C° 0 mm 7 m/s 750 mmHg 28%
    14:00 +36°C° 0 mm 6 m/s 750 mmHg 35%
    15:00 +34°C° 0 mm 5 m/s 750 mmHg 43%
    16:00 +32°C° 0 mm 5 m/s 750 mmHg 51%
    17:00 +30°C° 0 mm 4 m/s 750 mmHg 52%
    18:00 +30°C° 0 mm 4 m/s 750 mmHg 54%
    19:00 +29°C° 0 mm 4 m/s 750 mmHg 55%
    20:00 +28°C° 0 mm 5 m/s 750 mmHg 60%
    21:00 +27°C° 0 mm 6 m/s 750 mmHg 64%
    22:00 +27°C° 0 mm 8 m/s 751 mmHg 68%
    23:00 +26°C° 0.1 mm 7 m/s 751 mmHg 74%

    29 Julho, Segunda-feira

    Tempo Temperatura Precipitação Vento Pressão Humidade
    00:00 +24°C° 0.1 mm 7 m/s 751 mmHg 80%
    01:00 +23°C° 0.1 mm 7 m/s 751 mmHg 86%
    02:00 +23°C° 0.6 mm 7 m/s 751 mmHg 86%
    03:00 +23°C° 0.6 mm 6 m/s 751 mmHg 87%
    04:00 +22°C° 0.6 mm 6 m/s 751 mmHg 87%
    05:00 +25°C° 0 mm 5 m/s 751 mmHg 80%
    06:00 +26°C° 0 mm 4 m/s 751 mmHg 74%
    07:00 +28°C° 0 mm 3 m/s 751 mmHg 67%
    08:00 +29°C° 0.1 mm 3 m/s 751 mmHg 61%
    09:00 +32°C° 0.1 mm 4 m/s 751 mmHg 56%
    10:00 +33°C° 0.1 mm 4 m/s 751 mmHg 50%
    11:00 +33°C° 0.3 mm 4 m/s 751 mmHg 52%
    12:00 +32°C° 0.3 mm 5 m/s 751 mmHg 54%
    13:00 +32°C° 0.3 mm 6 m/s 750 mmHg 56%
    14:00 +30°C° 0.1 mm 5 m/s 750 mmHg 58%
    15:00 +30°C° 0.1 mm 4 m/s 750 mmHg 61%
    16:00 +29°C° 0.1 mm 3 m/s 750 mmHg 63%
    17:00 +28°C° 0.6 mm 3 m/s 751 mmHg 68%
    18:00 +27°C° 0.6 mm 3 m/s 751 mmHg 73%
    19:00 +26°C° 0.6 mm 3 m/s 751 mmHg 78%
    20:00 +25°C° 0.3 mm 3 m/s 752 mmHg 78%
    21:00 +24°C° 0.3 mm 3 m/s 752 mmHg 79%
    22:00 +24°C° 0.3 mm 3 m/s 752 mmHg 80%
    23:00 +23°C° 0 mm 2 m/s 752 mmHg 80%
    Mostrar mais